星链-31430 (STARLINK-31430 )

导读

STARLINK-31430是美国太空探索技术公司星链互联网卫星星座的一员,于2024年4月2日发射升空。星链项目旨在通过近地轨道卫星群,为全球提供高速互联网接入服务,该卫星入轨后,将和其他星链卫星协同工作,进一步扩充星链星座覆盖范围与服务能力。

Basic Information
目录编号:
59375
目录名称:
STARLINK-31430
国际标识:
2024-062B
轨道中心:
EARTH
卫星名称:
星链-31430
卫星全名:
星链-31430 (STARLINK-31430 )
卫星状态:
在轨 (已飞行885 天)
发射日期:
2024-04-02 UTC
国别 :
美国 (US)
星等 :
--
Orbit Information
数据来源 国际轨道数据 AOE轨道数据
星历时间 2026-09-03T10:56:43+0800
1天前
查看轨道信息
2026-09-03T22:00:00+0800
17小时前
查看轨道信息
半长轴 6840.855km 6840.842km
偏心率 0.0001234 0.0001208
轨道倾角 53.159° 53.158°
近地点辐角 90.762° 134.480°
升交点赤经 151.057° 148.904°
平近点角 269.353° 251.416°
近地点 461.873km 461.878km
远地点 463.563km 463.532km
周期 93.848分钟 93.848分钟
每日圈数 15.343953 15.343995
Detailed Information
固有亮度:
5
最大亮度:
0.3
卫星平台:
Starlink v2.0 mini
覆盖范围:
全球
运营商:
太空探索技术公司
运营商所在国:
美国
制造商(研发单位):
太空探索技术公司
制造商所在国:
美国
使用方式:
暂无
Satellite Introduction
星链(Starlink)计划是由太空探索技术公司(SpaceX)提出的一个巨型低轨卫星互联网星座项目,计划在2019年至2024年间在太空搭建由约1.2万颗卫星组成的“星链”网络,其中1584颗将部署在地球上空550千米处的近地轨道,并从2020年开始工作。该卫星仍在工作。
2D Orbit Map
3D Orbit Map
Orbit Altitude Analysis Chart
Orbit Inclination Analysis Chart
Orbit Comprehensive Analysis Chart
View Comprehensive Chart